IRIDIUM 24 [-]

Last updated on Wed Jun 28 2023 00:03:02 GMT+0000 (Coordinated Universal Time)

1 25105U 97082B 23178.11635149 .00000484 00000+0 14560-3 0 9994 2 25105 86.3917 25.5762 0009763 304.4288 55.5988 14.40629611339605
UTC large
Height (km)
Speed (km/s)
/
Latitude / Longitude
Inclination (degrees)
Orbital Period (minutes)
Azimuth
Elevation
Range (km)
Doppler Factor

Next 0 passes for location: London (51.5072 / 0.1276)

Sorry there are no passes over London.